Regional Weather Roundup
Issued by NWS

Home | Current Version | Previous Version | Graphics & Text | Print | Product List | Glossary On
Versions: 1 2 3 4 5 6 7 8 9 10 11 12 13 14 15 16 17 18 19 20 21 22 23 24 25 26 27 28 29 30 31 32 33 34 35 36 37 38 39 40 41 42 43 44 45 46 47 48 49 50
082
ASUS44 KJAN 191403
RWRMS

MISSISSIPPI HOURLY WEATHER ROUNDUP
NATIONAL WEATHER SERVICE JACKSON MS
800 AM CST FRI DEC 19 2014

NOTE: "FAIR: INDICATES FEW OR NO CLOUDS BELOW 12,000 FEET WITH NO
SIGNIFICANT WEATHER AND/OR OBSTRUCTIONS TO VISIBILITY.

MSZ001>002-007>008-010>013-018>021-025>028-034>036-191500-
NORTHWEST MISSISSIPPI

CITY           SKY/WX    TMP DP  RH WIND       PRES   REMARKS
CLARKSDALE     CLOUDY    43  41  93 N9        30.25R
CLEVELAND      PTSUNNY   43  42  95 N8        30.22R
GREENWOOD      CLOUDY    46  38  73 NE6       30.21R
GREENVILLE     CLOUDY    44  40  85 NE10      30.22R
GRENADA        CLOUDY    43  37  81 CALM      30.23R
OLIVE BRANCH   MOCLDY    37  37 100 NE7       30.26R FOG     WCI  32
OXFORD         CLOUDY    41  36  81 E6        30.24S
TUNICA         CLOUDY    43  37  81 N6        30.27R
$$

MSZ003>006-009-014>017-022>024-029>033-037>039-191500-
NORTHEAST MISSISSIPPI

CITY           SKY/WX    TMP DP  RH WIND       PRES   REMARKS
COLUMBUS AFB   CLOUDY    43  41  92 CALM      30.22S
CORINTH        CLOUDY    41  34  75 N7        30.24S
GOLDN TRIANGLE CLOUDY    43  39  87 CALM      30.20S
STARKVILLE     CLOUDY    45  37  76 E5        30.20F
TUPELO         CLOUDY    43  37  79 NE7       30.23R
$$

MSZ040-058-191500-
CENTRAL MISSISSIPPI

CITY           SKY/WX    TMP DP  RH WIND       PRES   REMARKS
JACKSON INTL   CLOUDY    48  36  63 NE3       30.19R
JACKSON HAWKNS CLOUDY    48  35  60 E6        30.19R
MERIDIAN KEY   CLOUDY    46  34  62 NE8       30.18F
MERIDIAN NAS   CLOUDY    44  37  76 E5        30.21R
RAYMOND        CLOUDY    48  45  87 E3        30.19R
VICKSBURG      CLOUDY    50  42  74 E7        30.17S
$$

MSZ059>079-191500-
SOUTH MISSISSIPPI

CITY           SKY/WX    TMP DP  RH WIND       PRES   REMARKS
HATTIESBURG    RAIN      48  44  86 S3        30.22R FOG
MCCOMB         LGT RAIN  48  46  93 E6        30.17R FOG
NATCHEZ        CLOUDY    48  46  93 E5        30.15F
PINE BELT      CLOUDY    46  39  76 CALM      30.21R
$$

MSZ080>082-191500-
COASTAL MISSISSIPPI

CITY           SKY/WX    TMP DP  RH WIND       PRES   REMARKS
BAY ST LOUIS   RAIN      50  48  93 N12       30.18R
BILOXI         RAIN      49  49 100 E12       30.16S FOG
PASCAGOULA     HVY RAIN  47  45  93 NE5       30.20R FOG
GULFPORT       HVY RAIN  50  47  89 NE13      30.16R
$$



USA.gov is the U.S. government's official web portal to all federal, state and local government web resources and services.